User: anonymous   Login
Location: Unspecified
(0.0000°N, 0.0000°E)
Time: 14:43:17
(UTC+00:00)
Language:

Quakesat - Orbit

View from above orbital plane
View from above orbital plane
View from above satellite
View from above satellite

Ground track
Ground track

The orbit data is extracted from the following two-line orbital elements,

1 27845U 03031F   20333.56285321 +.00000139 +00000-0 +82315-4 0  9992
2 27845 098.6786 340.0600 0008419 328.4836 031.5836 14.22314151903317
Epoch (UTC): 28 November 2020 13:30:30
Eccentricity: 0.0008419
inclination: 98.6786°
perigee height: 811 km
apogee height: 823 km
right ascension of ascending node: 340.0600°
argument of perigee: 328.4836°
revolutions per day: 14.22314151
mean anomaly at epoch: 31.5836°
orbit number at epoch: 90331

The dashed part of the orbit path shows where the satellite is in the earth's shadow,  

DLR